Time,TemperatureF,DewpointF,PressureIn,WindDirection,WindDirectionDegrees,WindSpeedMPH,WindSpeedGustMPH,Humidity,HourlyPrecipIn,Conditions,Clouds,dailyrainin,SoftwareType,DateUTC
2013-01-16 00:02:00,24.0,20.0,30.10,NW,316,0.0,3.0,83,0.00,,,0.00,,2013-01-16 06:02:00,
2013-01-16 00:12:00,24.0,20.0,30.10,NW,316,0.0,3.0,83,0.00,,,0.00,,2013-01-16 06:12:00,
2013-01-16 00:22:00,24.0,20.0,30.10,NW,316,0.0,1.0,84,0.00,,,0.00,,2013-01-16 06:22:00,
2013-01-16 00:32:00,24.0,20.0,30.09,NW,316,0.0,3.0,84,0.00,,,0.00,,2013-01-16 06:32:00,
2013-01-16 00:43:00,24.0,20.0,30.09,NW,316,0.0,3.0,84,0.00,,,0.00,,2013-01-16 06:43:00,
2013-01-16 00:53:00,24.0,20.0,30.08,NW,316,1.0,3.0,84,0.00,,,0.00,,2013-01-16 06:53:00,
2013-01-16 01:02:00,24.0,20.0,30.08,NW,316,1.0,3.0,84,0.00,,,0.00,,2013-01-16 07:02:00,
2013-01-16 01:12:00,24.0,20.0,30.08,NW,316,1.0,3.0,84,0.00,,,0.00,,2013-01-16 07:12:00,
2013-01-16 01:22:00,24.0,20.0,30.07,NW,316,1.0,5.0,84,0.00,,,0.00,,2013-01-16 07:22:00,
2013-01-16 01:32:00,24.0,20.0,30.07,NW,316,2.0,3.0,85,0.00,,,0.00,,2013-01-16 07:32:00,
2013-01-16 01:42:00,24.0,20.0,30.07,NW,316,2.0,3.0,85,0.00,,,0.00,,2013-01-16 07:42:00,
2013-01-16 01:52:00,24.0,20.0,30.09,NW,316,0.0,3.0,85,0.00,,,0.00,,2013-01-16 07:52:00,
2013-01-16 02:02:00,24.0,20.0,30.09,NW,316,0.0,1.0,85,0.00,,,0.00,,2013-01-16 08:02:00,
2013-01-16 02:12:00,24.0,20.0,30.09,NW,316,0.0,1.0,85,0.00,,,0.00,,2013-01-16 08:12:00,
2013-01-16 02:22:00,24.0,20.0,30.10,NW,316,0.0,1.0,85,0.00,,,0.00,,2013-01-16 08:22:00,
2013-01-16 02:32:00,23.0,19.0,30.10,NW,316,0.0,0.0,85,0.00,,,0.00,,2013-01-16 08:32:00,
2013-01-16 02:42:00,23.0,19.0,30.10,NW,316,0.0,0.0,85,0.00,,,0.00,,2013-01-16 08:42:00,
2013-01-16 02:53:00,23.0,19.0,30.09,NW,316,1.0,3.0,85,0.00,,,0.00,,2013-01-16 08:53:00,
2013-01-16 03:02:00,23.0,19.0,30.08,NW,316,0.0,3.0,85,0.00,,,0.00,,2013-01-16 09:02:00,
2013-01-16 03:12:00,23.0,19.0,30.08,NW,316,0.0,3.0,85,0.00,,,0.00,,2013-01-16 09:12:00,
2013-01-16 03:22:00,24.0,20.0,30.07,NW,316,0.0,1.0,85,0.00,,,0.00,,2013-01-16 09:22:00,
2013-01-16 03:32:00,24.0,20.0,30.07,NW,316,0.0,1.0,85,0.00,,,0.00,,2013-01-16 09:32:00,
2013-01-16 03:42:00,24.0,20.0,30.07,NW,316,0.0,1.0,85,0.00,,,0.00,,2013-01-16 09:42:00,
2013-01-16 03:53:00,24.0,20.0,30.07,NW,316,0.0,3.0,85,0.00,,,0.00,,2013-01-16 09:53:00,
2013-01-16 04:02:00,24.0,20.0,30.07,NW,316,2.0,3.0,86,0.00,,,0.00,,2013-01-16 10:02:00,
2013-01-16 04:12:00,24.0,20.0,30.07,NW,316,2.0,3.0,86,0.00,,,0.00,,2013-01-16 10:12:00,
2013-01-16 04:22:00,24.0,20.0,30.06,NW,316,1.0,3.0,85,0.00,,,0.00,,2013-01-16 10:22:00,
2013-01-16 04:32:00,24.0,20.0,30.05,NW,316,0.0,0.0,85,0.00,,,0.00,,2013-01-16 10:32:00,
2013-01-16 04:42:00,24.0,20.0,30.05,NW,316,0.0,0.0,85,0.00,,,0.00,,2013-01-16 10:42:00,
2013-01-16 04:53:00,23.0,19.0,30.04,NW,316,0.0,0.0,85,0.00,,,0.00,,2013-01-16 10:53:00,
2013-01-16 05:02:00,22.0,18.0,30.04,NW,316,0.0,1.0,86,0.00,,,0.00,,2013-01-16 11:02:00,
2013-01-16 05:12:00,22.0,18.0,30.04,NW,316,0.0,1.0,86,0.00,,,0.00,,2013-01-16 11:12:00,
2013-01-16 05:22:00,21.0,17.0,30.05,NW,316,0.0,1.0,86,0.00,,,0.00,,2013-01-16 11:22:00,
2013-01-16 05:32:00,21.0,17.0,30.05,NW,316,0.0,1.0,86,0.00,,,0.00,,2013-01-16 11:32:00,
2013-01-16 05:42:00,21.0,17.0,30.05,NW,316,0.0,1.0,86,0.00,,,0.00,,2013-01-16 11:42:00,
2013-01-16 05:53:00,21.0,18.0,30.03,NW,316,0.0,0.0,87,0.00,,,0.00,,2013-01-16 11:53:00,
2013-01-16 06:03:00,20.0,17.0,30.03,NW,316,0.0,0.0,87,0.00,,,0.00,,2013-01-16 12:03:00,
2013-01-16 06:13:00,20.0,17.0,30.03,NW,316,0.0,0.0,87,0.00,,,0.00,,2013-01-16 12:13:00,
2013-01-16 06:22:00,20.0,17.0,30.04,NW,316,0.0,0.0,87,0.00,,,0.00,,2013-01-16 12:22:00,
2013-01-16 06:33:00,20.0,17.0,30.03,NW,316,0.0,0.0,87,0.00,,,0.00,,2013-01-16 12:33:00,
2013-01-16 06:43:00,20.0,17.0,30.03,NW,316,0.0,0.0,87,0.00,,,0.00,,2013-01-16 12:43:00,
2013-01-16 06:53:00,20.0,17.0,30.02,NW,316,0.0,0.0,88,0.00,,,0.00,,2013-01-16 12:53:00,
2013-01-16 07:03:00,21.0,18.0,30.03,NW,316,0.0,3.0,89,0.00,,,0.00,,2013-01-16 13:03:00,
2013-01-16 07:12:00,21.0,18.0,30.03,NW,316,0.0,3.0,89,0.00,,,0.00,,2013-01-16 13:12:00,
2013-01-16 07:22:00,21.0,18.0,30.04,NW,316,0.0,1.0,88,0.00,,,0.00,,2013-01-16 13:22:00,
2013-01-16 07:33:00,21.0,18.0,30.03,NW,316,0.0,1.0,88,0.00,,,0.00,,2013-01-16 13:33:00,
2013-01-16 07:43:00,21.0,18.0,30.03,NW,316,0.0,1.0,88,0.00,,,0.00,,2013-01-16 13:43:00,
2013-01-16 07:53:00,20.0,17.0,30.04,NW,316,0.0,0.0,88,0.00,,,0.00,,2013-01-16 13:53:00,
2013-01-16 08:03:00,20.0,17.0,30.05,NW,316,0.0,0.0,88,0.00,,,0.00,,2013-01-16 14:03:00,
2013-01-16 08:12:00,20.0,17.0,30.05,NW,316,0.0,0.0,88,0.00,,,0.00,,2013-01-16 14:12:00,
2013-01-16 08:22:00,21.0,18.0,30.07,NW,316,2.0,5.0,89,0.00,,,0.00,,2013-01-16 14:22:00,
2013-01-16 08:32:00,21.0,18.0,30.07,NW,316,2.0,5.0,89,0.00,,,0.00,,2013-01-16 14:32:00,
2013-01-16 08:42:00,21.0,18.0,30.07,NW,316,2.0,5.0,89,0.00,,,0.00,,2013-01-16 14:42:00,
2013-01-16 08:53:00,23.0,20.0,30.06,ESE,118,1.0,3.0,89,0.00,,,0.00,,2013-01-16 14:53:00,
2013-01-16 09:03:00,24.0,21.0,30.06,WSW,250,2.0,8.0,88,0.00,,,0.00,,2013-01-16 15:03:00,
2013-01-16 09:12:00,24.0,21.0,30.06,WSW,250,2.0,8.0,88,0.00,,,0.00,,2013-01-16 15:12:00,
2013-01-16 09:22:00,25.0,21.0,30.05,SSW,212,2.0,10.0,86,0.00,,,0.00,,2013-01-16 15:22:00,
2013-01-16 09:33:00,26.0,22.0,30.04,SW,223,0.0,8.0,84,0.00,,,0.00,,2013-01-16 15:33:00,
2013-01-16 09:43:00,26.0,22.0,30.04,SW,223,0.0,8.0,84,0.00,,,0.00,,2013-01-16 15:43:00,
2013-01-16 09:53:00,27.0,22.0,30.04,WSW,239,3.0,14.0,81,0.00,,,0.00,,2013-01-16 15:53:00,
2013-01-16 10:03:00,28.0,22.0,30.05,West,265,2.0,9.0,79,0.00,,,0.00,,2013-01-16 16:03:00,
2013-01-16 10:12:00,28.0,22.0,30.05,West,265,2.0,9.0,79,0.00,,,0.00,,2013-01-16 16:12:00,
2013-01-16 10:22:00,29.0,21.0,30.05,WSW,248,4.0,15.0,73,0.00,,,0.00,,2013-01-16 16:22:00,
2013-01-16 10:33:00,29.0,21.0,30.04,WSW,244,5.0,9.0,71,0.00,,,0.00,,2013-01-16 16:33:00,
2013-01-16 10:42:00,29.0,21.0,30.04,WSW,244,5.0,9.0,71,0.00,,,0.00,,2013-01-16 16:42:00,
2013-01-16 10:53:00,30.0,20.0,30.03,WSW,252,3.0,12.0,66,0.00,,,0.00,,2013-01-16 16:53:00,
2013-01-16 11:02:00,31.0,20.0,30.02,WSW,241,3.0,10.0,64,0.00,,,0.00,,2013-01-16 17:02:00,
2013-01-16 11:12:00,31.0,20.0,30.02,WSW,241,3.0,10.0,64,0.00,,,0.00,,2013-01-16 17:12:00,
2013-01-16 11:22:00,32.0,19.0,30.00,WSW,242,5.0,10.0,58,0.00,,,0.00,,2013-01-16 17:22:00,
2013-01-16 11:33:00,32.0,19.0,30.00,WSW,254,6.0,15.0,57,0.00,,,0.00,,2013-01-16 17:33:00,
2013-01-16 11:43:00,32.0,19.0,30.00,WSW,254,6.0,15.0,57,0.00,,,0.00,,2013-01-16 17:43:00,
2013-01-16 11:53:00,33.0,19.0,29.99,West,275,6.0,16.0,55,0.00,,,0.00,,2013-01-16 17:53:00,
2013-01-16 12:02:00,34.0,19.0,29.98,SW,229,3.0,9.0,53,0.00,,,0.00,,2013-01-16 18:02:00,
2013-01-16 12:12:00,34.0,19.0,29.98,SW,229,3.0,9.0,53,0.00,,,0.00,,2013-01-16 18:12:00,
2013-01-16 12:23:00,34.0,18.0,29.98,WSW,254,3.0,14.0,51,0.01,,,0.01,,2013-01-16 18:23:00,
2013-01-16 12:33:00,34.0,17.0,29.97,SSW,194,6.0,15.0,50,0.01,,,0.01,,2013-01-16 18:33:00,
2013-01-16 12:42:00,34.0,17.0,29.97,SSW,194,6.0,15.0,50,0.01,,,0.01,,2013-01-16 18:42:00,
2013-01-16 12:53:00,35.0,18.0,29.97,SSW,212,6.0,14.0,50,0.01,,,0.01,,2013-01-16 18:53:00,
2013-01-16 13:03:00,35.0,19.0,29.96,SSW,197,5.0,10.0,51,0.01,,,0.01,,2013-01-16 19:03:00,
2013-01-16 13:12:00,35.0,19.0,29.96,SSW,197,5.0,10.0,51,0.01,,,0.01,,2013-01-16 19:12:00,
2013-01-16 13:23:00,36.0,20.0,29.95,South,174,7.0,10.0,51,0.01,,,0.02,,2013-01-16 19:23:00,
2013-01-16 13:33:00,36.0,20.0,29.95,WSW,249,6.0,18.0,51,0.01,,,0.02,,2013-01-16 19:33:00,
2013-01-16 13:43:00,36.0,20.0,29.95,WSW,249,6.0,18.0,51,0.01,,,0.02,,2013-01-16 19:43:00,
2013-01-16 13:53:00,36.0,19.0,29.94,SSW,207,6.0,15.0,50,0.01,,,0.02,,2013-01-16 19:53:00,
2013-01-16 14:03:00,37.0,21.0,29.95,South,169,4.0,8.0,51,0.01,,,0.02,,2013-01-16 20:03:00,
2013-01-16 14:12:00,37.0,21.0,29.95,South,169,4.0,8.0,51,0.01,,,0.02,,2013-01-16 20:12:00,
2013-01-16 14:23:00,37.0,20.0,29.95,ESE,105,6.0,16.0,50,0.01,,,0.03,,2013-01-16 20:23:00,
2013-01-16 14:33:00,37.0,20.0,29.94,SSW,210,5.0,14.0,50,0.01,,,0.03,,2013-01-16 20:33:00,
2013-01-16 14:42:00,37.0,20.0,29.94,SSW,210,5.0,14.0,50,0.01,,,0.03,,2013-01-16 20:42:00,
2013-01-16 14:53:00,36.0,20.0,29.93,SW,230,9.0,15.0,51,0.01,,,0.03,,2013-01-16 20:53:00,
2013-01-16 15:02:00,36.0,21.0,29.93,SSW,194,3.0,23.0,53,0.01,,,0.03,,2013-01-16 21:02:00,
2013-01-16 15:12:00,36.0,21.0,29.93,SSW,194,3.0,23.0,53,0.01,,,0.03,,2013-01-16 21:12:00,
2013-01-16 15:22:00,36.0,21.0,29.93,South,190,5.0,21.0,53,0.00,,,0.03,,2013-01-16 21:22:00,
2013-01-16 15:33:00,36.0,21.0,29.94,SW,226,5.0,18.0,53,0.00,,,0.03,,2013-01-16 21:33:00,
2013-01-16 15:43:00,36.0,21.0,29.94,SW,226,5.0,18.0,53,0.00,,,0.03,,2013-01-16 21:43:00,
2013-01-16 15:53:00,36.0,22.0,29.94,SSE,168,5.0,14.0,56,0.00,,,0.03,,2013-01-16 21:53:00,
2013-01-16 16:02:00,36.0,21.0,29.95,SSW,212,6.0,16.0,55,0.00,,,0.03,,2013-01-16 22:02:00,
2013-01-16 16:12:00,36.0,21.0,29.95,SSW,212,6.0,16.0,55,0.00,,,0.03,,2013-01-16 22:12:00,
2013-01-16 16:22:00,36.0,23.0,29.97,WSW,242,6.0,10.0,58,0.00,,,0.03,,2013-01-16 22:22:00,
2013-01-16 16:33:00,36.0,23.0,29.97,SSE,164,3.0,5.0,58,0.00,,,0.03,,2013-01-16 22:33:00,
2013-01-16 16:43:00,36.0,23.0,29.97,SSE,164,3.0,5.0,58,0.00,,,0.03,,2013-01-16 22:43:00,
2013-01-16 16:53:00,35.0,22.0,29.98,WSW,253,3.0,10.0,59,0.00,,,0.03,,2013-01-16 22:53:00,
2013-01-16 17:02:00,35.0,23.0,29.98,SE,142,2.0,8.0,60,0.00,,,0.03,,2013-01-16 23:02:00,
2013-01-16 17:12:00,34.0,22.0,29.99,South,173,3.0,9.0,62,0.00,,,0.03,,2013-01-16 23:12:00,
2013-01-16 17:23:00,34.0,22.0,29.99,South,173,3.0,9.0,62,0.00,,,0.03,,2013-01-16 23:23:00,
2013-01-16 17:32:00,34.0,23.0,30.00,South,179,2.0,8.0,63,0.00,,,0.03,,2013-01-16 23:32:00,
2013-01-16 17:42:00,34.0,23.0,30.00,South,179,2.0,8.0,63,0.00,,,0.03,,2013-01-16 23:42:00,
2013-01-16 17:53:00,34.0,23.0,30.00,South,185,2.0,9.0,64,0.00,,,0.03,,2013-01-16 23:53:00,
2013-01-16 18:02:00,34.0,23.0,30.00,South,172,2.0,6.0,65,0.00,,,0.03,,2013-01-17 00:02:00,
2013-01-16 18:12:00,34.0,23.0,30.00,South,172,2.0,6.0,65,0.00,,,0.03,,2013-01-17 00:12:00,
2013-01-16 18:22:00,34.0,23.0,30.01,SSE,168,2.0,14.0,65,0.00,,,0.03,,2013-01-17 00:22:00,
2013-01-16 18:32:00,34.0,23.0,30.01,South,176,4.0,10.0,65,0.00,,,0.03,,2013-01-17 00:32:00,
2013-01-16 18:42:00,34.0,23.0,30.01,South,176,4.0,10.0,65,0.00,,,0.03,,2013-01-17 00:42:00,
2013-01-16 18:52:00,35.0,24.0,30.02,SSW,196,3.0,14.0,64,0.00,,,0.03,,2013-01-17 00:52:00,
2013-01-16 19:02:00,35.0,24.0,30.02,SSW,199,5.0,9.0,64,0.00,,,0.03,,2013-01-17 01:02:00,
2013-01-16 19:12:00,35.0,24.0,30.02,SSW,199,5.0,9.0,64,0.00,,,0.03,,2013-01-17 01:12:00,
2013-01-16 19:22:00,35.0,24.0,30.03,West,259,6.0,14.0,63,0.00,,,0.03,,2013-01-17 01:22:00,
2013-01-16 19:32:00,35.0,24.0,30.03,South,191,4.0,14.0,63,0.00,,,0.03,,2013-01-17 01:32:00,
2013-01-16 19:42:00,35.0,24.0,30.03,South,191,4.0,14.0,63,0.00,,,0.03,,2013-01-17 01:42:00,
2013-01-16 19:52:00,35.0,24.0,30.03,SW,218,5.0,14.0,64,0.00,,,0.03,,2013-01-17 01:52:00,
2013-01-16 20:02:00,35.0,24.0,30.04,WSW,248,3.0,14.0,64,0.00,,,0.03,,2013-01-17 02:02:00,
2013-01-16 20:12:00,35.0,24.0,30.04,WSW,248,3.0,14.0,64,0.00,,,0.03,,2013-01-17 02:12:00,
2013-01-16 20:22:00,35.0,24.0,30.04,WSW,245,5.0,10.0,64,0.00,,,0.03,,2013-01-17 02:22:00,
2013-01-16 20:32:00,35.0,24.0,30.04,SSW,198,3.0,10.0,65,0.00,,,0.03,,2013-01-17 02:32:00,
2013-01-16 20:42:00,35.0,24.0,30.04,SSW,198,3.0,10.0,65,0.00,,,0.03,,2013-01-17 02:42:00,
2013-01-16 20:52:00,35.0,24.0,30.04,SSW,198,3.0,10.0,65,0.00,,,0.03,,2013-01-17 02:52:00,
2013-01-16 21:02:00,35.0,25.0,30.04,SSW,194,2.0,6.0,66,0.00,,,0.03,,2013-01-17 03:02:00,
2013-01-16 21:12:00,35.0,25.0,30.04,SSW,194,2.0,6.0,66,0.00,,,0.03,,2013-01-17 03:12:00,
2013-01-16 21:22:00,35.0,25.0,30.04,SSW,204,2.0,9.0,67,0.00,,,0.03,,2013-01-17 03:22:00,
2013-01-16 21:32:00,35.0,25.0,30.03,SW,234,2.0,6.0,67,0.00,,,0.03,,2013-01-17 03:32:00,
2013-01-16 21:42:00,35.0,25.0,30.03,SW,234,2.0,6.0,67,0.00,,,0.03,,2013-01-17 03:42:00,
2013-01-16 21:52:00,34.0,25.0,30.04,WSW,251,0.0,6.0,69,0.00,,,0.03,,2013-01-17 03:52:00,
2013-01-16 22:02:00,34.0,25.0,30.04,West,280,1.0,8.0,70,0.00,,,0.03,,2013-01-17 04:02:00,
2013-01-16 22:12:00,34.0,25.0,30.05,WSW,239,1.0,9.0,70,0.00,,,0.03,,2013-01-17 04:12:00,
2013-01-16 22:22:00,34.0,25.0,30.05,WSW,239,1.0,9.0,70,0.00,,,0.03,,2013-01-17 04:22:00,
2013-01-16 22:32:00,34.0,25.0,30.04,WNW,286,1.0,3.0,70,0.00,,,0.03,,2013-01-17 04:32:00,
2013-01-16 22:42:00,34.0,25.0,30.04,WNW,286,1.0,3.0,70,0.00,,,0.03,,2013-01-17 04:42:00,
2013-01-16 22:52:00,34.0,26.0,30.04,WNW,286,1.0,5.0,72,0.00,,,0.03,,2013-01-17 04:52:00,
2013-01-16 23:04:00,34.0,26.0,30.04,NW,314,5.0,10.0,72,0.00,,,0.03,,2013-01-17 05:04:00,
2013-01-16 23:12:00,34.0,26.0,30.04,NW,314,5.0,10.0,72,0.00,,,0.03,,2013-01-17 05:12:00,
2013-01-16 23:22:00,34.0,26.0,30.04,SW,232,2.0,6.0,73,0.00,,,0.03,,2013-01-17 05:22:00,
2013-01-16 23:33:00,34.0,26.0,30.04,West,263,2.0,9.0,73,0.00,,,0.03,,2013-01-17 05:33:00,
2013-01-16 23:42:00,34.0,26.0,30.04,West,263,2.0,9.0,73,0.00,,,0.03,,2013-01-17 05:42:00,
2013-01-16 23:53:00,33.0,26.0,30.05,WSW,251,1.0,6.0,74,0.00,,,0.03,,2013-01-17 05:53:00,